Location: Cosy Dell
(34.2789°N, 117.4537°W)
Time: 21:06:51
(UTC+00:00)

Cosmos 1455 - Pass Details

Date: 14 July 2020
Orbit: 500 x 522 km, 82.5° (Epoch: 13 August)

Event Time Altitude Azimuth Distance (km) Brightness Sun altitude
Rises 03:27:20 0° 358° (N) 2,651 6.3 -5.2°
Reaches altitude 10° 03:29:30 10° 3° (N) 1,761 5.3 -5.6°
Maximum altitude 03:33:18 55° 82° (E) 634 2.4 -6.3°
Drops below altitude 10° 03:37:04 10° 160° (SSE) 1,749 4.4 -7.0°
Enters shadow 03:38:48 - 165° (SSE) 2,459 5.2 -7.3°
